User: anonymous   Login
Location: Balaclava NSW 2575, Australia
(34.4510°S, 150.4953°E)
Time: 23:04:59
(UTC+10:00)
Language:

deb Explorer IX - Orbit

View from above orbital plane
View from above orbital plane
View from above satellite
View from above satellite

Ground track
Ground track

The orbit data is extracted from the following two-line orbital elements,

1 00085U 61004C   21172.54804445  .00001325  00000-0  30074-3 0  9999
2 00085  38.7705 296.2311 0384568  80.7065 283.6950 14.21794636983623
Epoch (UTC): 21 June 2021 13:09:11
Eccentricity: 0.0384568
inclination: 38.7705°
perigee height: 542 km
apogee height: 1096 km
right ascension of ascending node: 296.2311°
argument of perigee: 80.7065°
revolutions per day: 14.21794636
mean anomaly at epoch: 283.6950°
orbit number at epoch: 98362

The dashed part of the orbit path shows where the satellite is in the earth's shadow,  

DLR